Regional Weather Roundup
Issued by NWS

Home | Current Version | Previous Version | Graphics & Text | Print | Product List | Glossary On
Versions: 1 2 3 4 5 6 7 8 9 10 11 12 13 14 15 16 17 18 19 20 21 22 23 24 25 26 27 28 29 30 31 32 33 34 35 36 37 38 39 40 41 42 43 44 45 46 47 48 49 50
000
ASUS45 KBOI 241110
RWRID

IDAHO REGIONAL WEATHER ROUNDUP
NATIONAL WEATHER SERVICE BOISE ID
500 AM MDT SUN MAY 24 2015

NOTE: "FAIR" INDICATES FEW OR NO CLOUDS BELOW 12000 FEET
WITH NO SIGNIFICANT WEATHER AND/OR OBSTRUCTIONS TO VISIBILITY

IDZ012-014-241200-
SOUTHWEST IDAHO


CITY           SKY/WX    TMP DP  RH WIND       PRES   REMARKS
BOISE          PTCLDY    57  49  74 SE7       29.93S
CALDWELL       PTCLDY    54  45  71 NE7       29.94S
MOUNTAIN HOME  CLOUDY    54  49  83 E3        29.95R
$$

IDZ016-017-241200-
SOUTHCENTRAL IDAHO


CITY           SKY/WX    TMP DP  RH WIND       PRES   REMARKS
BURLEY         CLOUDY    47  46  97 N3        29.97S
JEROME         MOCLDY    49  47  93 N5        29.99S
TWIN FALLS     MOCLDY    52  45  77 NW3       29.96S
$$

IDZ019>023-241200-
SOUTHEAST IDAHO


CITY           SKY/WX    TMP DP  RH WIND       PRES   REMARKS
IDAHO FALLS    PTCLDY    42  40  92 CALM      29.98S FOG
POCATELLO      PTCLDY    43  43 100 CALM      29.98F
REXBURG        PTCLDY    40  39  97 W3        29.97F
$$

IDZ006-010-011-018-031-032-241200-
CENTRAL IDAHO MOUNTAINS


CITY           SKY/WX    TMP DP  RH WIND       PRES   REMARKS
MCCALL         CLEAR     49  38  65 N8        30.01S
HAILEY         PTCLDY    45  43  93 NW10      30.02F
STANLEY          N/A     38  35  89 CALM      30.07F
SALMON         CLOUDY    50  46  87 CALM      30.03S
CHALLIS        CLOUDY    50  40  68 N3        30.03R
$$

IDZ002-004-006-007-026-241200-
NORTHERN IDAHO


CITY           SKY/WX    TMP DP  RH WIND       PRES   REMARKS
LEWISTON       PTCLDY    56  53  90 CALM      29.99S
LOWELL           N/A     53  51  93 CALM      30.04F
COEUR D`ALENE  PTCLDY    55  46  71 SE6       30.01F
MULLAN PASS    PTCLDY    47  34  60 E6        30.11F
$$


USA.gov is the U.S. government's official web portal to all federal, state and local government web resources and services.